Starlink 11572

operational
NORAD ID: 62990 Int'l Des: 2025-031 Owner: SPXS Country: US Constellation: starlink
LEOCIRCULAR

About Starlink 11572

Description loading...

Live Position

Loading 3D Globe...

Upcoming Passes

Altitude History

Altitude vs Time

uPlot chart will show altitude changes over time

Two-Line Element Set

1 62990U 25031K 25304.67445970 .00245018 00000-0 18536-2 0 9998
2 62990 42.9985 58.9434 0002752 315.6525 44.4122 15.70885416 42458
Epoch: Oct 31, 2025 • Age: 20 hours

Current Status

Altitude 357.0 km
Velocity 7.70 km/s
Sub-Earth Point -17.25°S, 174.92°E
Launch Date Feb 11, 2025
Age 0.7 years
Type internet

Technical Details

Classification Payload
Mass 960.00 kg
Dry Mass 910.00 kg
Total Mass 960.00 kg
Length 0.30 m
Diameter 4.10 m
Span 29.00 m
Shape Box + pan
Manufacturer SPXS
Bus Type Starlink V2MD
Phase Status In Orbit
Owner/State SPXS/US

Large Constellations

Loading constellations...